Regional Weather Roundup
Issued by NWS Kansas City/Pleasant Hill, MO

Home | Current Version | Previous Version | Text Only | Print | Product List | Glossary On
Versions: 1 2 3 4 5 6 7 8 9 10 11 12 13 14 15 16 17 18 19 20 21 22 23 24 25 26 27 28 29 30 31 32 33 34 35 36 37 38 39 40 41 42 43 44 45 46 47 48 49 50
000
ASUS43 KEAX 060311
RWREAX

WEATHER ROUNDUP FOR EASTERN KANSAS AND NORTHWEST MISSOURI
NATIONAL WEATHER SERVICE KANSAS CITY/PLEASANT HILL MO
900 PM CST THU MAR 05 2015

KSZ040-057-103>105-MOZ028-029-037-043-060400-
...KANSAS CITY METROPOLITAN AREA...

CITY           SKY/WX    TMP DP  RH WIND       PRES   REMARKS
K.C. INTL      CLEAR     22   7  52 SE8       30.47F WCI  12
K.C. DOWNTOWN  CLEAR     27  12  53 S7        30.49F WCI  19
LEES SUMMIT    CLEAR     25  12  58 S6        30.48F WCI  18
OLATHE - IXD   CLEAR     24  14  65 S10       30.48S WCI  14
OLATHE - OJC   CLEAR     24  14  65 SE8       30.47F WCI  15
LAWRENCE       CLEAR     23  13  65 SE6       30.48S WCI  16

$$

MOZ001>008-011>017-020>025-030>033-038>040-044>046-053-054-060400-
...NORTHERN AND CENTRAL MISSOURI...

CITY           SKY/WX    TMP DP  RH WIND       PRES   REMARKS
ST. JOSEPH     CLEAR     24   7  48 SE6       30.47F WCI  17
MOSBY          CLEAR     27  10  50 SE3       30.50S
WARRENSBURG    CLEAR     23  10  58 SE5       30.52F WCI  17
WHITEMAN AFB   CLEAR     23  10  58 SE5       30.51F WCI  17
CLINTON        CLEAR     25  14  63 SE3       30.53F
SEDALIA        CLEAR     22  11  62 SE5       30.53F WCI  16
WARSAW         NOT AVBL
MARSHALL       CLEAR     27   9  46 SE3       30.55
CHILLICOTHE      N/A     22   9  57 SE5       30.53R WCI  16
MOBERLY        CLEAR     19  10  68 SE3       30.54F
KIRKSVILLE     CLEAR     16   9  74 SE8       30.52S WCI   5

$$

MOZ041-047>049-056>058-063>065-088>090-097-060400-
...EASTERN AND SOUTHERN MISSOURI...

CITY           SKY/WX    TMP DP  RH WIND       PRES   REMARKS
ST. LOUIS INTL CLEAR     19   5  54 NE7       30.59S WCI  10
SPIRIT OF STL  CLEAR     19   9  65 CALM      30.58F
COLUMBIA       CLEAR     21  11  65 E3        30.54R
JEFFERSON CITY CLEAR     21  10  62 CALM      30.57R
MEXICO         CLEAR     16  12  86 CALM      30.55S
HANNIBAL       CLEAR     14   1  57 SE5       30.56R WCI   6
ROLLA          CLEAR     19  14  81 CALM      30.51S
LEBANON        CLEAR     23   7  50 CALM      30.52R
OSAGE BEACH    CLEAR     21  10  63 CALM      30.54S
SPRINGFIELD    CLEAR     20  13  74 SE3       30.51S
BRANSON        CLEAR     18  10  73 CALM      30.53S
NEVADA         CLEAR     23  14  68 SE6       30.53S WCI  16
JOPLIN         CLEAR     28  14  55 SE7       30.51F WCI  21
WEST PLAINS    CLEAR     17   7  64 CALM      30.52S

$$

IAZ060-094-KSZ022-034>040-054-083-096-NEZ052-066-093-060400-
...KANSAS...SOUTHEAST NEBRASKA AND IOWA...

CITY           SKY/WX    TMP DP  RH WIND       PRES   REMARKS
TOPEKA         CLEAR     27  13  55 SE6       30.46F WCI  20
MANHATTAN      CLEAR     30  16  56 S8        30.40F WCI  22
EMPORIA        CLEAR     25  18  74 SE8       30.44S WCI  16
CHANUTE        CLEAR     28  18  66 SE9       30.48S WCI  19
WICHITA        PTCLDY    32  20  61 S9        30.43R WCI  24
OMAHA          CLEAR     25   6  44 SE14      30.38F WCI  13
LINCOLN        CLEAR     24   9  52 S8        30.35S WCI  15
FALLS CITY     CLEAR     21   6  52 SE7       30.42F WCI  12
LAMONI         CLEAR     19   5  54 S5        30.46S WCI  12
DES MOINES     CLEAR     18   2  49 SE6       30.46F WCI  10

$$




USA.gov is the U.S. government's official web portal to all federal, state and local government web resources and services.